Regional Weather Roundup
Issued by NWS Goodland, KS

Home | Current Version | Previous Version | Graphics & Text | Print | Product List | Glossary On
Versions: 1 2 3 4 5 6 7 8 9 10 11 12 13 14 15 16 17 18 19 20 21 22 23 24 25 26 27 28 29 30 31 32 33 34 35 36 37 38 39 40 41 42 43 44 45 46 47 48 49 50
000
ASUS43 KGLD 140759
RWRGLD

GOODLAND FORECAST AREA HOURLY WEATHER ROUNDUP
NATIONAL WEATHER SERVICE GOODLAND KS
100 AM MST SUN FEB 14 2016

...OFFICIAL OBSERVATIONS...

CITY           SKY/WX    TMP DP  RH WIND       PRES   REMARKS
GOODLAND KS    CLEAR     31  27  85 NW12      30.03F
HILL CITY KS   CLEAR     26  21  81 W6        30.04F
IMPERIAL NEB   CLEAR     35  27  72 NW15      30.00F
MCCOOK NEB     CLEAR     30  26  85 W17       30.00F WCI  18
AKRON CO       CLEAR     30  24  78 N12       30.04F
BURLINGTON CO  CLEAR     33  26  75 NW12      30.04F
LIMON CO       CLEAR     28  25  88 SW7       30.07R
$$

...UNOFFICIAL OBSERVATIONS...

CITY           SKY/WX    TMP DP  RH WIND       PRES   REMARKS
COLBY KS       CLEAR     27  27 100 W8        30.02F
GOVE KS          N/A     29  32 100 MISG        N/A
LENORA KS        N/A     30  32 100 MISG        N/A
NORTON KS      PTCLDY    21  16  79 SW7       30.00F
SHARON SPRINGS   N/A     34  30  85 N8          N/A
KIT CARSON CO    N/A     34  29  80 MISG        N/A
YUMA CO          N/A     33  27  77 NW8         N/A
$$



USA.gov is the U.S. government's official web portal to all federal, state and local government web resources and services.